Home   Weather   Dublin   Past weeks
Flag for Ireland

Past Weather in Dublin, Ireland — Yesterday and Last 2 Weeks

Now
45 °F

Partly sunny.


Feels Like: 40 °F
Forecast: 53 / 41 °F
Wind: 8 mph from Southwest

Location: Dublin Airport

Current Time: Apr 3, 2020 at 8:54:36 am

Latest Report: Apr 3, 2020 at 8:00 am


Visibility: N/A

Pressure: 30.01 "Hg

Humidity: 81%

Dew Point: 39 °F

Location of DublinLocation

Past Weather in Dublin — Graph

°F

Dublin Temperature Yesterday

Maximum temperature yesterday: 52 °F (at 11:30 am)
Minimum temperature yesterday: 41 °F (at 11:30 pm)
Average temperature yesterday: 47 °F

High & Low Weather Summary for the Past Weeks

 TemperatureHumidityPressure
High59 °F (Mar 25, 12:00 pm)100% (Mar 19, 6:00 am)30.92 "Hg (Mar 19, 6:00 am)
Low28 °F (Mar 19, 6:00 am)52% (Mar 28, 11:00 pm)29.98 "Hg (Apr 2, 11:30 am)
Average44 °F76%30.37 "Hg
* Reported Mar 19 6:00 am — Apr 3 7:30 am, Dublin. Weather by CustomWeather, © 2020

Note: Actual official high and low records may vary slightly from our data, if they occured in-between our weather recording intervals... More about our weather records

Dublin Weather History for the Previous 24 Hours

Scroll right to see more
 ConditionsComfort  
Time TempWeatherWind HumidityBarometerVisibility
7:30 am
Fri, Apr 3
43 °FPartly sunny.7 mph87%30.01 "HgN/A
7:00 am43 °FPartly sunny.7 mph87%30.01 "HgN/A
6:30 am43 °FPassing clouds.6 mph87%30.01 "HgN/A
6:00 am41 °FPartly cloudy.6 mph93%30.01 "HgN/A
5:30 am41 °FPassing clouds.8 mph87%30.01 "HgN/A
5:00 am41 °FPassing clouds.9 mph87%30.01 "HgN/A
4:00 am41 °FPassing clouds.8 mph87%30.01 "HgN/A
3:30 am41 °FPassing clouds.10 mph87%30.01 "HgN/A
3:00 am43 °FPassing clouds.10 mph81%30.01 "HgN/A
2:30 am43 °FPassing clouds.10 mph81%30.01 "HgN/A
2:00 am43 °FPassing clouds.8 mph81%30.01 "HgN/A
12:30 am41 °FPassing clouds.12 mph87%30.01 "HgN/A
12:00 am39 °FClear.10 mph87%30.04 "Hg10 mi
11:30 pm
Thu, Apr 2
41 °FClear.8 mph81%30.04 "Hg10 mi
11:00 pm43 °FClear.12 mph81%30.01 "Hg10 mi
10:30 pm43 °FClear.10 mph81%30.01 "Hg10 mi
10:00 pm45 °FClear.13 mph71%30.01 "Hg10 mi
9:30 pm45 °FPassing clouds.13 mph76%30.01 "HgN/A
9:00 pm45 °FPassing clouds.14 mph76%30.01 "HgN/A
8:30 pm46 °FPassing clouds.15 mph71%30.01 "HgN/A
8:00 pm46 °FPartly sunny.13 mph76%30.01 "HgN/A
7:30 pm46 °FScattered clouds.16 mph76%30.01 "HgN/A
7:00 pm48 °FPartly sunny.20 mph76%30.01 "HgN/A
6:30 pm48 °FBroken clouds.15 mph76%29.98 "HgN/A
6:00 pm50 °FPartly sunny.17 mph71%29.98 "HgN/A
5:30 pm50 °FScattered clouds.17 mph71%29.98 "HgN/A
5:00 pm50 °FScattered clouds.24 mph76%29.98 "HgN/A
4:30 pm52 °FScattered showers. Passing clouds.17 mph77%29.98 "HgN/A
4:00 pm52 °FScattered showers. Broken clouds.22 mph77%29.98 "HgN/A
3:30 pm52 °FBroken clouds.21 mph82%29.98 "HgN/A
3:00 pm50 °FScattered showers. Broken clouds.18 mph88%29.98 "HgN/A
2:30 pm52 °FSprinkles. Broken clouds.21 mph82%29.98 "Hg4 mi
2:00 pm52 °FScattered showers. Broken clouds.23 mph82%29.98 "HgN/A
1:30 pm52 °FSprinkles. Broken clouds.21 mph82%29.98 "HgN/A
1:00 pm52 °FScattered showers. Broken clouds.23 mph77%29.98 "HgN/A
12:30 pm52 °FDrizzle. Broken clouds.24 mph77%29.98 "HgN/A
12:00 pm50 °FBroken clouds.26 mph82%29.98 "HgN/A
11:30 am52 °FBroken clouds.25 mph77%29.98 "HgN/A
11:00 am48 °FPartly sunny.22 mph82%30.01 "HgN/A
10:30 am48 °FPartly sunny.22 mph82%30.01 "HgN/A
10:00 am46 °FPartly sunny.22 mph87%30.01 "HgN/A
9:30 am46 °FPartly sunny.17 mph87%30.01 "HgN/A
9:00 am46 °FPartly sunny.17 mph82%30.04 "HgN/A
8:30 am46 °FPartly sunny.16 mph82%30.04 "HgN/A
8:00 am46 °FBroken clouds.17 mph82%30.04 "HgN/A
Weather by CustomWeather, © 2020

See weather overview

Advertising